Location: Proctor
(47.8934°N, 114.3048°W)
Time: 17:01:35
(UTC+00:00)

Courier 1B Rocket - Pass Details

Date: 16 June 2024
Orbit: 920 x 1201 km, 28.2° (Epoch: 16 July)

Event Time Altitude Azimuth Distance (km) Brightness Sun altitude
Rises 13:19:15 0° 225° (SW) 3,918 7.6 14.1°
Reaches altitude 10° 13:23:21 10° 203° (SSW) 3,016 7.2 14.8°
Maximum altitude 13:27:18 15° 171° (S) 2,687 7.3 15.4°
Drops below altitude 10° 13:31:21 10° 139° (SE) 3,096 8.0 16.0°
Sets 13:35:39 0° 118° (ESE) 4,085 9.0 16.7°
